Regional Weather Roundup
Issued by NWS Charleston, SC

Current Version | Previous Version | Graphics & Text | Print | Product List | Glossary On
Versions: 1 2 3 4 5 6 7 8 9 10 11 12 13 14 15 16 17 18 19 20 21 22 23 24 25 26 27 28 29 30 31 32 33 34 35 36 37 38 39 40 41 42 43 44 45 46 47 48 49 50
406
ASUS42 KCHS 251613
RWRCHS

Regional Weather Roundup
National Weather Service Charleston SC
1200 PM EDT WED APR 25 2018

NOTE: "fair" indicates few or no clouds below 12,000 feet with no
significant weather and/or obstructions to visibility.

Not all stations are quality controlled. Use data with caution,
especially dewpoint observations.

SCZ027-030-031-034>040-042>050-251700-
...Southeast South Carolina...

CITY           SKY/WX    TMP DP  RH WIND       PRES   REMARKS
N Charleston   FAIR      75  56  51 W10       29.82S
Waterfront Prk   N/A     71  56  58 W7G15     29.67S
Mount Pleasant FAIR      73  57  56 SW9       29.82S
Johns Island   FAIR      75  57  53 W10G18    29.83S
Pinopolis        N/A     66  61  82 VRB2      29.74S
Moncks Corner  FAIR      72  54  53 W7        29.82S
Summerville    FAIR      72  54  53 W9G17     29.84S
Beaufort MCAS  FAIR      75  57  53 W12G17    29.85S
Beaufort Arpt  FAIR      73  55  53 W12       29.84F
Hilton Head Is SUNNY     73  55  53 SW8       29.86F
Walterboro     FAIR      72  54  53 W10G17    29.85S
Allendale      FAIR      72  55  56 VRB5G14   29.84F

...Southern Midlands and Pee Dee...

CITY           SKY/WX    TMP DP  RH WIND       PRES   REMARKS
Georgetown     FAIR      72  54  53 W7G16     29.82S
Kingstree      FAIR      72  55  56 W9        29.80S
Orangeburg     FAIR      71  55  56 W9        29.83S
Barnwell       NOT AVBL
Aiken          FAIR      70  54  56 W5        29.87S
Manning        FAIR      68  52  56 W8        29.81F
Columbia       FAIR      73  56  54 W7        29.81F
Sumter         FAIR      73  55  52 W5        29.78F
Florence       FAIR      72  57  59 W10       29.78F
Myrtle Beach   FAIR      73  57  57 VRB5      29.81S
N Myrtle Beach PTSUNNY   70  60  70 S14       29.78F

$$

GAZ063-065-086>088-099>101-113>116-118-119-134>141-150-251700-
...Southeast Georgia...

CITY           SKY/WX    TMP DP  RH WIND       PRES   REMARKS
Savannah Arpt  FAIR      76  54  46 W18       29.86F
Hunter AAF     FAIR      75  55  49 W15       29.84F
Fort Stewart   FAIR      74  55  50 W10       29.86F
Statesboro     FAIR      73  51  45 W12G20    29.87F
Sylvania       FAIR      72  59  64 W6        29.87F
Claxton        FAIR      73  57  58 SW12      29.89F

...CSRA, Central and far Southeast Georgia...

CITY           SKY/WX    TMP DP  RH WIND       PRES   REMARKS
Thomson        FAIR      70  53  53 N10       29.92S
Augusta-Bush   FAIR      72  55  55 W8        29.84F
Augusta-Daniel FAIR      73  55  53 NW9       29.86S
Swainsboro     PTSUNNY   70  55  60 W8        29.89F
Vidalia        PTSUNNY   70  59  68 SW10G17   29.90F
Eastman        FAIR      72  46  39 W8        29.94F
Hazlehurst     FAIR      72  53  50 NW8       29.90F
Alma           FAIR      74  55  51 W9        29.91F
Waycross       FAIR      75  51  42 NW12G18   29.92F
Jesup          NOT AVBL
Baxley         FAIR      70  54  56 W8        29.91S
Brunswick      FAIR      73  54  49 W9G17     29.91F
Saint Simons   FAIR      74  56  53 SW15G21   29.90F

$$

SCZ027-028-034-036>038-045-046-048>050-GAZ119-141-251700-
...Lake and Supplemental Coastal Observations...

STATION/POSITION TIME  TEMP    WIND        PRES    WAVE   SWELL
                       AIR SEA DIR/SP/G            HT/PER HT/PER/DIR
                 (UTC) (F)     (DEG/KT/KT) (MB)    (FT/S) (FT/S/D)
Winyah Bay       1445   70     260/  6     1009.0
Lake Murray      1520   67     280/  5/  9 1009.1
ACE Basin NERRS  1445   70     350/  4       N/A
Fort Pulaski     1542   69 66  300/ 14/ 17 1011.5F
Sapelo Island    1500   70     290/  7     1013.0

$$

ANZ835-935-AMZ111-154-330-350-352-354-370-450-454-472-251700-
...C-MAN and Buoy Observations...

STATION/POSITION TIME  TEMP    WIND        PRES    WAVE   SWELL
                       AIR SEA DIR/SP/G            HT/PER HT/PER/DIR
                 (UTC) (F)     (DEG/KT/KT) (MB)    (FT/S) (FT/S/D)
Buoy 41004       1550      69  230/ 14/ 17 1010.5S   6/ 9   5/110/ 9
Buoy 41008       1550   65 66  220/  8/ 10 1012.3F   3/ 9   3/ 80/ 9
Folly Beach CMAN 1600   67     210/ 16/ 18 1010.7F
Capers Nearshore 1508   65 65  240/ 14/ 16 1010.0F
Fripp Nearshore  1508   65 66  260/ 10/ 14 1010.7S


STATION/POSITION TIME  TEMP    WIND        PRES    WAVE   SWELL
                       AIR SEA DIR/SP/G            HT/PER HT/PER/DIR
                 (UTC) (F)     (DEG/KT/KT) (MB)    (FT/S) (FT/S/D)
5E St. Marys GA  1600      69                N/A     2/ 9
Frying Pan Buoy  1550   66 70  230/ 14/ 16 1009.6S   7/10   7/110/10
Buoy 41025       1600   69 70  240/ 14/ 17 1007.8
Cape Lookout NC  1500          210/ 11/ 15 1008.2F
Buoy 41002       1550   73 73  190/ 17/ 21 1010.2F   8/ 8   7/120/ 8
Buoy 41010       1550   73 75  280/ 12/ 16 1014.2F   6/ 8   5/ 80/ 8
St Augustine FL  1600   73 68  270/  6/  9 1014.3F


$$




USA.gov is the U.S. government's official web portal to all federal, state and local government web resources and services.